Weather in Bunchukivka

Ukraine / Luhansk Region     49°28′55″N   38°38′43″E
temp.,
°C
wind,
m/s
gust,
m/s
humid.,
%
clouds,
%
prec.,
mm/h
press.,
hPa
HPBL,
m
15 may, sat
sat1500:00+17ssw3688100 0.0 101196
03:00+14wsw22859 0.4 101213
06:00+15w238497 0.0 101271
09:00+18nw1167100 0.0 1012149
12:00+23sw344923 0.0 10141029
15:00+24sw344412 0.0 10131821
18:00+24wsw245653 0.0 1013173
21:00+18wnw22685 0.0 101312
16 may, sun
sun1600:00+16nnw22735 0.0 101412
03:00+14nne22750 0.0 101411
06:00+15ne24797 0.0 101482
09:00+21ene45635 0.0 1014512
12:00+25ene455552 0.0 10121193
15:00+27ene565493 0.0 10111937
18:00+24ese48575 0.2 1010262
21:00+18ene486811 0.2 101099
17 may, mon
mon1700:00+17ene51461100 0.0 1009241
03:00+15e413695 0.0 1008214
06:00+15e4146823 0.0 1008276
09:00+21ese81654100 0.0 1008871
12:00+24se9124619 0.0 10081230
15:00+25se794750 0.0 10071404
18:00+24se5962100 0.0 1007567
21:00+19se397718 0.0 1008150
18 may, tue
tue1800:00+16ssw238587 0.0 100839
03:00+14ssw2392100 0.0 100840
06:00+15ssw279291 0.8 1009309
09:00+18ssw4675100 0.8 1009624
12:00+18ssw4675100 0.1 1010785
15:00+21ssw676578 0.9 10091402
18:00+21ssw47660 0.5 10081166
21:00+17s61376100 0.7 1010348
19 may, wed
wed1900:00+15s51187100 0.0 1009382
03:00+14s389383 0.0 1010231
06:00+14ssw499462 0.0 1011410
09:00+17wsw457470 0.1 1012991
12:00+20wsw5653100 0.2 10121771
15:00+21ssw3449100 0.2 10121850
18:00+18ssw3566100 0.0 1012120
21:00+14wsw2585100 0.6 1013145